Regional Weather Roundup
Issued by NWS

Home | Current Version | Previous Version | Text Only | Print | Product List | Glossary Off
Versions: 1 2 3 4 5 6 7 8 9 10 11 12 13 14 15 16 17 18 19 20 21 22 23 24 25 26 27 28 29 30 31 32 33 34 35 36 37 38 39 40 41 42 43 44 45 46 47 48 49 50

000
ASUS43 KLSX 060807
RWRMO

WEATHER SUMMARY FOR MISSOURI
NATIONAL WEATHER SERVICE SPRINGFIELD MO
300 AM CDT MON JUL 06 2015

NOTE: "FAIR" INDICATES FEW OR NO CLOUDS BELOW 12,000 FEET WITH NO
       SIGNIFICANT WEATHER AND/OR OBSTRUCTIONS TO VISIBILITY.
       CURRENT SKY AND/OR WEATHER CONDITIONS ARE NOT AVAILABLE FOR
       CHILLICOTHE AND FARMINGTON.

MOZ001>031-035>038-043-044-053-054-060900-
...NORTHERN AND WESTERN MISSOURI...

CITY           SKY/WX    TMP DP  RH WIND       PRES   REMARKS
KANSAS CTY INT MOCLDY    76  70  82 S14       29.89F
KANSAS C DTWN  MOCLDY    77  68  73 S13G18    29.88F
LEE`S SUMMIT   PTCLDY    73  67  81 S14G21    29.92F
ST JOSEPH      CLOUDY    80  71  74 S13       29.86F
CHILLICOTHE      N/A     76  67  73 S8        29.91F
KIRKSVILLE     MOCLDY    73  69  87 S7        29.94S

$$
MOZ066>068-077>081-088>096-101>105-060900-
...SOUTHWEST MISSOURI...

CITY           SKY/WX    TMP DP  RH WIND       PRES   REMARKS
SPRINGFIELD    PTCLDY    71  68  90 S8        30.00S
JOPLIN         MOCLDY    74  69  85 S10       29.97R

$$
MOZ032>034-039>042-045>050-055>058-069>072-060900-
...CENTRAL MISSOURI...

CITY           SKY/WX    TMP DP  RH WIND       PRES   REMARKS
COLUMBIA       CLEAR     73  71  93 S7        29.96F
JEFFERSON CITY CLEAR     75  71  87 SE3       29.95F
ROLLA          CLEAR     72  71  97 S9        29.98F
SEDALIA        MOCLDY    74  67  78 S10       29.96S
WHITEMAN AFB   MOCLDY    72  68  86 S9        29.93F
WARRENSBURG    MOCLDY    72  66  83 S9        29.93F
OSAGE BEACH    PTCLDY    72  70  94 S5        29.98R

$$
MOZ051-052-059>065-060900-
...EAST CENTRAL MISSOURI...

CITY           SKY/WX    TMP DP  RH WIND       PRES   REMARKS
ST LOUIS INTL  CLEAR     76  68  76 S6        29.99F
SPIRIT OF STL  CLEAR     73  70  90 CALM      29.97F
ST CHARLES     CLEAR     71  69  93 CALM      29.98F FOG

$$
MOZ072>076-082>087-097>100-106>115-060900-
...SOUTH CENTRAL AND SOUTHEAST MISSOURI...

CITY           SKY/WX    TMP DP  RH WIND       PRES   REMARKS
CAPE GIRARDEAU PTCLDY    73  72  96 SW5       30.02S
FARMINGTON     CLOUDY    72  72 100 S5        30.06F
POPLAR BLUFF   CLOUDY    74  72  93 S6        30.01F
WEST PLAINS    CLOUDY    72  70  93 S6        30.04S FOG

$$



USA.gov is the U.S. government's official web portal to all federal, state and local government web resources and services.